SL-16 R/B (31793 NORAD) Tracking and Keplerian Element Data

This shows tracking and keplerian element data for the satellite.

Feedback or suggestion? Click here.




ElementValue
Catalog31793
NameSL-16 R/B
Epoch Orbit90897
Epoch Day34.94674263
Epoch Year2025
RAAN290.5185
Inclination70.9763
Eccentricity0.0002896
Argument of Perigee266.5193
Mean Anonmoly179.5023
Mean Motion14.14744753
Decay Rate-4.8E-07
L11 31793U 07029B 25034.94674263 -.00000048 00000+0 -17762-6 0 9998
L22 31793 70.9763 290.5185 0002896 266.5193 179.5023 14.14744753908974



Live tracking and technical data element details for SL-16 R/B (NORAD 31793). SL-16 R/B can be tracked NOW for your location showing map with azimuth and elevation plus other details from your city location.







IsCatalogInMostPopularTable: catalog: 31793, numindb: 560
Update: records affected: 1



GetName: 31793 SL-16 R/B

Hit Count: updated at: Thu, 22 May 2025 02:47:44 GMT